{"data":{"norad_id":60295,"intl_designator":"2024-132T","name":"STARLINK-32126","alt_names":[],"object_type":"PAYLOAD","status":"ACTIVE","operator":null,"country":"US","launch_date":"2024-07-28","launch_site_code":"AFETR","launch_vehicle":null,"mission":null,"orbit_class":"UNKNOWN","rcs_meters":null,"size_class":null,"mass_kg":null,"dimensions":null,"purposes":["comms"],"wikipedia_slug":null,"has_3d_model":false,"image_url":null,"decayed_at":null,"tle_current":{"epoch":"2026-05-25T03:12:29.648736Z","epoch_age_seconds":70474,"freshness":"FRESH","line1":"1 60295U 24132T   26145.13367649  .00000392  00000+0  24380-4 0  9995","line2":"2 60295  53.1610  57.4001 0001158  95.1312 264.9822 15.31700302103260","mean_motion":15.31700302,"eccentricity":0.0001158,"inclination_deg":53.161,"raan_deg":57.4001,"arg_perigee_deg":95.1312,"mean_anomaly_deg":264.9822,"bstar":2.438e-5,"rev_number":10326,"period_min":94.013169424837,"perigee_km":469.94599512771,"apogee_km":471.53219483131,"semimajor_km":6848.8760949795,"source":"CELESTRAK","updated_at":"2026-05-25T13:38:19.224928Z"}}}